{"data":{"norad_id":62311,"intl_designator":"2024-239L","name":"STARLINK-32700","alt_names":[],"object_type":"PAYLOAD","status":"ACTIVE","operator":null,"country":"US","launch_date":"2024-12-13","launch_site_code":"AFWTR","launch_vehicle":null,"mission":null,"orbit_class":"UNKNOWN","rcs_meters":null,"size_class":null,"mass_kg":null,"dimensions":null,"purposes":["comms"],"wikipedia_slug":null,"has_3d_model":false,"image_url":null,"decayed_at":null,"tle_current":{"epoch":"2026-09-21T19:55:39.571104Z","epoch_age_seconds":63265,"freshness":"FRESH","line1":"1 62311U 24239L   26264.83031911  .00000052  00000+0  12664-4 0  9998","line2":"2 62311  53.1619 347.2709 0001104 107.3619 252.7505 15.34378541 99628","mean_motion":15.34378541,"eccentricity":0.0001104,"inclination_deg":53.1619,"raan_deg":347.2709,"arg_perigee_deg":107.3619,"mean_anomaly_deg":252.7505,"bstar":1.2664e-5,"rev_number":9962,"period_min":93.849070586031,"perigee_km":462.01178581673,"apogee_km":463.52225742471,"semimajor_km":6840.9040216207,"source":"CELESTRAK","updated_at":"2026-09-22T09:00:49.572681Z"}}}